DECAYED

STARLINK-5466, 54765 (Decayed)

Orbit data source: Space-Track

STARLINK-5466, 54765 was a payload satellite owned by SpaceX/Seattle (US) in LEO that was launched on Sat, 17 Dec 2022 UTC via an FALCON 9 launch vehicle from the Air Force Eastern Test Range (AFETR). Payload-class satellites include a variety of spacecraft equipped with specific instruments for various scientific and technological missions. These include communications satellites like Starlink; space stations such as the ISS; scientific satellites like the Hubble; Earth observation satellites from companies like Planet Labs, Umbra, and HawkEye 360; GPS; miniature CubeSats for education and research; and military/defense satellites.

Not visible in the next 10 days
Identifier
54765, 2022-175H
Orbit
Decayed
Country
Flag of USUS
Related business
Manufacturer
SpaceX/Seattle
Mission
Decayed Commercial Communications
Bus & Motor
STARLINK, Unknown motor
Mass
305 kg wet, ~290 kg dry
Launch date (UTC)
2022-12-17 (4 years ago)
Launch vehicle
FALCON 9
Launch site
Air Force Eastern Test Range (AFETR)
Object type
Payload
Rocket body
Debris
Shape & HBR
Box + 1 Pan, 10.1 m
Radar Cross Section
13.562 m², Large (>1 m²)

Expand to show TLE details & history
Last TLE update: 1 year ago

TLE from 1 year ago
0 STARLINK-5466
1 54765U 22175H   25008.66249874  .17661906  12514-4  57517-3 0  9996
2 54765  53.2003 124.6437 0001776 356.3221 143.2985 16.44918987113983
Epoch: 2025-01-08T15:53Z
TLE epoch observation values (Epoch: 2025-01-08T15:53:59.891Z)
Latitude
31.34311°
Longitude
-69.24354°
Altitude
155.606 km
Speed
7.817 km/s
True Right ascension
18h 30m 49s
True Declination
31° 10' 35"
Sunlit
Object was in daylight at epoch
Visualization orbit readout
Latitude
Unknown
Longitude
Unknown
Altitude
Unknown
Speed
Unknown
Apparent Right ascension
Unknown
Apparent Declination
Unknown
Sunlit
N/A
Visualization observer readout
Local Sidereal Time
21:31:32
Azimuth
Unknown
Elevation
Unknown
Doppler factor
Unknown
Orbital elements
Apogee altitude
154.172 km
Perigee altitude
151.852 km
Semi-major axis
6,531.149 km
Eccentricity
0.00018
Inclination
53.2003°
RAAN
124.6437°
Arg. of periapsis
356.3221°
True anomaly
143.31066°
Mean anomaly
143.2985°
Eccentric anomaly
143.30458°
Mean motion
4.11205 °/min
Orbital period
87.55 mins
BSTAR
0.00057517
Loading maneuver chart data...
Computing Atmospheric mass density...
Loading historical data...
Loading historical data...
Loading historical data...
Loading historical data...
Loading historical data...
Loading historical data...
Loading historical data...

Documentation

Showing up to 5 results
|